Weather History for Corpus Christi NAS, TX

Change the Weather History Date:

Tuesday, April 24, 2012

  Actual Average Record
Temperature  
Mean Temperature 72 °F -  
Max Temperature 81 °F 78 °F 86 °F (2002)
Min Temperature 64 °F 65 °F 51 °F (2013)
Cooling Degree Days 7    
Growing Degree Days 22 (Base 50)    
Moisture  
Dew Point 63 °F    
Average Humidity 72    
Maximum Humidity 90    
Minimum Humidity 48    
Precipitation  
Precipitation 0.00 in - - ()
Sea Level Pressure  
Sea Level Pressure 30.02 in    
Wind  
Wind Speed 12 mph (SE)    
Max Wind Speed 22 mph    
Max Gust Speed 29 mph    
Visibility 10 miles    
Events      
Averages and records for this station are not official NWS values.
T = Trace of Precipitation, MM = Missing Value Source: NWS Daily Summary

Daily Weather History Graph

Daily Weather History Graph

Search for Another Location

Airport:

Trip Planner

Search our weather history database for the weather conditions in past years. The results will help you decide how hot, cold, wet, or windy it might be!

Date:

Astronomy

Apr. 24, 2012 Rise Set
Actual Time 6:55 AM CDT 7:59 PM CDT
Civil Twilight 6:30 AM CDT 8:23 PM CDT
Nautical Twilight 6:02 AM CDT 8:52 PM CDT
Astronomical Twilight 5:32 AM CDT 9:22 PM CDT
Moon 9:04 AM CDT (4/24) 11:07 PM CDT (4/24)
Length of Visible Light 13h 52m
Length of Day
13h 04m
Waxing Crescent, 10% of the Moon is Illuminated
Apr 24
Waxing Crescent
Apr 29
First Quarter
May 5
Full
May 12
Last Quarter
May 20
New

Hourly Weather History & Observations

Time (CDT) Temp. Heat Index Dew Point Humidity Pressure Visibility Wind Dir Wind Speed Gust Speed Precip Events Conditions
12:56 AM 66.9 °F - 61.0 °F 81% 30.06 in 10.0 mi SE 8.1 mph - N/A   Clear
1:56 AM 66.0 °F - 61.0 °F 84% 30.05 in 10.0 mi SE 6.9 mph - N/A   Clear
2:56 AM 64.9 °F - 61.0 °F 87% 30.04 in 10.0 mi SE 5.8 mph - N/A   Clear
3:56 AM 64.9 °F - 62.1 °F 90% 30.03 in 10.0 mi SE 5.8 mph - N/A   Clear
4:56 AM 64.9 °F - 62.1 °F 90% 30.03 in 10.0 mi SSE 5.8 mph - N/A   Clear
5:56 AM 66.0 °F - 63.0 °F 90% 30.02 in 10.0 mi SE 8.1 mph - N/A   Clear
6:56 AM 66.9 °F - 63.0 °F 87% 30.03 in 10.0 mi SE 9.2 mph - N/A   Partly Cloudy
7:56 AM 71.1 °F - 64.9 °F 81% 30.04 in 10.0 mi SE 13.8 mph - N/A   Scattered Clouds
8:56 AM 73.9 °F - 63.0 °F 68% 30.06 in 10.0 mi SE 13.8 mph - N/A   Scattered Clouds
9:56 AM 75.9 °F - 63.0 °F 64% 30.07 in 10.0 mi SSE 13.8 mph - N/A   Scattered Clouds
10:56 AM 78.1 °F - 61.0 °F 56% 30.08 in 10.0 mi SSE 17.3 mph - N/A   Scattered Clouds
11:56 AM 79.0 °F - 61.0 °F 54% 30.07 in 10.0 mi SSE 17.3 mph - N/A   Partly Cloudy
12:56 PM 80.1 °F 80.7 °F 59.0 °F 48% 30.06 in 10.0 mi SE 17.3 mph - N/A   Partly Cloudy
1:56 PM 80.1 °F 80.9 °F 60.1 °F 50% 30.04 in 10.0 mi SE 18.4 mph 24.2 mph N/A   Partly Cloudy
2:56 PM 80.1 °F 80.9 °F 60.1 °F 50% 30.02 in 10.0 mi SE 21.9 mph 26.5 mph N/A   Partly Cloudy
3:56 PM 79.0 °F - 63.0 °F 58% 29.99 in 10.0 mi SSE 18.4 mph 27.6 mph N/A   Partly Cloudy
4:56 PM 78.1 °F - 64.0 °F 62% 29.97 in 10.0 mi SSE 18.4 mph 28.8 mph N/A   Partly Cloudy
5:56 PM 75.9 °F - 63.0 °F 64% 29.96 in 10.0 mi SSE 19.6 mph - N/A   Partly Cloudy
6:56 PM 75.0 °F - 63.0 °F 66% 29.95 in 10.0 mi SE 19.6 mph - N/A   Clear
7:56 PM 73.0 °F - 64.0 °F 73% 29.95 in 10.0 mi SSE 19.6 mph - N/A   Clear
8:56 PM 73.0 °F - 64.9 °F 76% 29.96 in 10.0 mi SSE 17.3 mph 24.2 mph N/A   Clear
9:56 PM 72.0 °F - 64.9 °F 78% 29.98 in 10.0 mi SSE 16.1 mph - N/A   Clear
10:56 PM 72.0 °F - 66.0 °F 81% 29.97 in 10.0 mi SSE 15.0 mph 20.7 mph N/A   Clear
11:56 PM 73.0 °F - 66.9 °F 81% 29.96 in 10.0 mi SSE 16.1 mph 23.0 mph N/A   Scattered Clouds